Weather Roundup
Issued by NWS Chicago, IL

Home | Current Version | Previous Version | Text Only | Print | Product List | Glossary On
Versions: 1 2 3 4 5 6 7 8 9 10 11 12 13 14 15 16 17 18 19 20 21 22 23 24 25 26 27 28 29 30 31 32 33 34 35 36 37 38 39 40 41 42 43 44 45 46 47 48 49 50
000
NZUS59 KLOT 231321
HRRLOT

CHICAGO AREA WEATHER ROUNDUP
NATIONAL WEATHER SERVICE CHICAGO/ROMEOVILLE IL
800 AM CDT SAT MAY 23 2015

NOTE: "FAIR" INDICATES FEW OR NO CLOUDS BELOW 12,000 FEET WITH NO
SIGNIFICANT WEATHER AND/OR OBSTRUCTIONS TO VISIBILITY.

* THESE STATIONS ARE NOT UNDER NWS QUALITY CONTROL. THEY ALSO MAY NOT
  REPORT WEATHER SUCH AS PRECIPITATION OR FOG.

ILZ005-006-012>014-019>023-231400-
NORTHEAST ILLINOIS

CITY           SKY/WX    TMP DP  RH WIND       PRES   REMARKS
OHARE          MOSUNNY   59  36  42 SE6       30.34S
MIDWAY         MOSUNNY   61  35  37 S6        30.34S
AURORA         MOSUNNY   60  37  42 SE9       30.34F
LANSING*       SUNNY     60  36  40 SE6       30.35F
JOLIET*        MOSUNNY   62  41  46 SE6       30.34F
WAUKEGAN       SUNNY     58  37  45 S7        30.34S
DUPAGE AIRPORT MOSUNNY   59  36  42 SE9       30.33S
WHEELING       SUNNY     57  39  51 SE5       30.36S
KANKAKEE*      MOSUNNY   61  41  47 E12       30.35S
MORRIS*        MOSUNNY   61  38  42 SE8       30.32R
LEWIS AIRPORT* MOSUNNY   60  37  42 S8        30.34S
NORTHERLY IS     N/A     58  42  55 S2          N/A
$$

WIZ051-052-058>065-066-070>072-231400-
SOUTHEAST WISCONSIN

CITY           SKY/WX    TMP DP  RH WIND       PRES   REMARKS
MILWAUKEE      MOSUNNY   58  34  40 S9        30.34S
KENOSHA*       SUNNY     59  37  44 S9        30.34S
RACINE*        SUNNY     59  35  40 SW7       30.35S
BURLINGTON     SUNNY     55  37  50 S3        30.34S
WAUKESHA       MOSUNNY   54  32  43 SW7       30.34S
WEST BEND      SUNNY     59  30  33 SW6       30.33S
$$

INZ001>003-010>013-019-020-231400-
NORTHWEST INDIANA

CITY           SKY/WX    TMP DP  RH WIND       PRES   REMARKS
GARY*          MOSUNNY   61  36  39 SE9       30.36R
MICHIGAN CITY* NOT AVBL
RENSSELAER*    NOT AVBL
VALPARAISO     SUNNY     58  37  45 S6        30.37S
$$

LMZ740>746-231400-
SOUTHERN LAKE MICHIGAN

STATION/POSITION TIME  SKY/WX   TEMP WIND        PRES    VSBY
                                AIR  DIR/SP/G
                 (UTC)          (F)  (DEG/KT/KT) (MB)    (MI)
HARRISON CRIB    1300            55  160/  9/ 11   N/A
BURNHAM HARBOR   1300            57  150/  4/  5   N/A
CALUMET HARBOR   1200            57  140/  6/  7   N/A
BURNS HARBOR     1200            57  150/  9/ 12 1028.4R
MICHIGAN CITY    1300            60  130/ 11/ 13   N/A
$$

ABBREVIATIONS USED IN REMARKS
   TC - TEMPERATURE IN CELSIUS
  WCI - WIND CHILL INDEX
   HX - HEAT INDEX
  VSB - VISIBILITY
$$



USA.gov is the U.S. government's official web portal to all federal, state and local government web resources and services.